Location: Newark
(41.9364°N, 2.8061°E)
Time: 08:30:26
(UTC+00:00)

A-11 Canister half - Visible Passes

Search period start: 21 June 2021 00:00
Search period end: 01 July 2021 00:00
Orbit: 1513 x 1686 km, 47.2° (Epoch: 20 June)

Date Brightness Start Highest point End Pass type
(mag) Time Alt. Az. Time Alt. Az. Time Alt. Az.
21 Jun 9.8 02:40:44 14° SSW 02:48:47 43° SE 02:57:52 10° ENE visible
22 Jun 9.8 02:18:57 18° SSW 02:25:54 41° SE 02:34:52 10° ENE visible
23 Jun 9.8 01:57:08 21° S 02:03:01 38° SE 02:11:53 10° ENE visible
24 Jun 9.9 01:35:16 24° S 01:40:09 36° SE 01:48:52 10° ENE visible
24 Jun 9.2 03:34:18 10° WSW 03:44:28 87° SSE 03:54:19 10° ENE visible
25 Jun 9.9 01:13:21 26° S 01:17:16 34° SE 01:25:50 10° ENE visible
25 Jun 9.2 03:11:31 11° WSW 03:21:31 84° SSE 03:31:23 10° ENE visible
26 Jun 9.9 00:51:22 27° SSE 00:54:24 32° SE 01:02:48 10° ENE visible
26 Jun 9.2 02:49:32 14° SW 02:58:33 82° SSE 03:08:28 10° ENE visible
27 Jun 9.9 00:29:21 28° SSE 00:31:32 30° SE 00:39:44 10° ENE visible
27 Jun 9.1 02:27:30 18° SW 02:35:37 79° SSE 02:45:31 10° ENE visible
28 Jun 10.0 00:07:16 27° SE 00:08:41 28° SE 00:16:39 10° ENE visible
28 Jun 9.1 02:05:25 22° SW 02:12:40 76° SSE 02:22:35 10° ENE visible
28 Jun 10.0 23:45:07 26° SE 23:45:49 26° SE 23:53:34 10° ENE visible
29 Jun 9.1 01:43:16 26° SW 01:49:43 73° SSE 01:59:38 10° ENE visible
29 Jun 10.1 23:22:54 24° SE 23:22:58 24° SE 23:30:27 10° E visible
30 Jun 9.1 01:21:03 30° SW 01:26:47 70° SE 01:36:41 10° ENE visible
30 Jun 9.4 03:21:58 10° W 03:32:06 69° NNW 03:41:56 10° ENE visible
30 Jun 10.2 23:00:36 22° ESE 23:00:36 22° ESE 23:07:16 10° E visible
